Other Surface Observations
Issued by NWS Upton, NY

Home | Current Version | Previous Version | Text Only | Print | Product List | Glossary On
Versions: 1 2 3 4 5 6 7 8 9 10 11 12 13 14 15 16 17 18 19 20 21 22 23 24 25 26 27 28 29 30 31 32 33 34 35 36 37 38 39 40 41 42 43 44 45 46 47 48 49 50
000
SXUS51 KOKX 191957
OSOOKX
New York City Metropolitan Area Weather Roundup
National Weather Service New York NY
400 PM EDT THU APR 19 2018

CITY           SKY/WX    TMP DP  RH WIND       PRES   REMARKS
Central Park   PTSUNNY   44  36  73 NW9G17    29.80S
LaGuardia Arpt PTSUNNY   44  36  73 NW14      29.77S
Kennedy Intl   LGT RAIN  43  39  86 NW15      29.79R
Newark Liberty PTSUNNY   46  38  73 NW12      29.79S
Teterboro Arpt FAIR      46  36  68 NW9       29.77S
Bronx Bot Gard   N/A     43  34  70 NW3       29.79S
Bronx Lehman C   N/A     41  36  81 NW8         N/A
Queens College   N/A     41  36  81 NW13        N/A
Breezy Point     N/A     41 N/A N/A NW13G21     N/A
Brooklyn Coll    N/A     43  34  70 W15         N/A
Staten Island    N/A     43  36  75 NW10        N/A

>>>>>>>>>>>>>>>>>>>>>>>>>>>>>>>>> KEY <<<<<<<<<<<<<<<<<<<<<<<<<<<<<<<
> SKY/WX - Sky Condition/Present    : R : WCI - Wind Chill Index    <
>          Weather                  : E : VSB - Visibility in Miles <
> TMP    - Temperature in Deg F     : M : HX  - Heat Index          <
> DP     - Dew Point Temperature    : A : TC  - Temperature in      <
> RH     - Relative Humidity        : R :       Celsius             <
> WIND   - Direction/Speed (mph)    : K : VRB - Variable Wind Dir   <
> PRES   - Pressure (in Hg)         : S :                           <
>>>>>>>>>>>>>>>>>>>>>>>>>>>>>>>>> KEY <<<<<<<<<<<<<<<<<<<<<<<<<<<<<<<



USA.gov is the U.S. government's official web portal to all federal, state and local government web resources and services.